• In Hungary
  • List of Countries
  • For 7 days
  • Water Temperature
  • Satellite Maps
  • Weather Map
  • News
  • Weather Widgets
  • user-avatar
    Login

    Hourly Weather Mirbat

    Today, 22 January, Monday

    Time Temperature Precipitation Wind Pressure Humidity
    00:00 +24°C° 0 mm 2 mps 760 mmHg 44%
    01:00 +24°C° 0 mm 3 mps 760 mmHg 43%
    02:00 +22°C° 0 mm 3 mps 760 mmHg 42%
    03:00 +22°C° 0 mm 4 mps 760 mmHg 41%
    04:00 +21°C° 0 mm 4 mps 760 mmHg 40%
    05:00 +21°C° 0 mm 4 mps 760 mmHg 38%
    06:00 +20°C° 0 mm 5 mps 761 mmHg 36%
    07:00 +20°C° 0 mm 5 mps 761 mmHg 35%
    08:00 +21°C° 0 mm 5 mps 761 mmHg 33%
    09:00 +22°C° 0 mm 5 mps 761 mmHg 31%
    10:00 +23°C° 0 mm 5 mps 762 mmHg 30%
    11:00 +25°C° 0 mm 5 mps 761 mmHg 28%
    12:00 +26°C° 0 mm 5 mps 760 mmHg 26%
    13:00 +27°C° 0 mm 5 mps 760 mmHg 24%
    14:00 +27°C° 0 mm 5 mps 759 mmHg 24%
    15:00 +27°C° 0 mm 5 mps 759 mmHg 24%
    16:00 +28°C° 0 mm 5 mps 758 mmHg 25%
    17:00 +27°C° 0 mm 5 mps 759 mmHg 27%
    18:00 +26°C° 0 mm 4 mps 759 mmHg 29%
    19:00 +23°C° 0 mm 4 mps 759 mmHg 31%
    20:00 +24°C° 0 mm 3 mps 759 mmHg 31%
    21:00 +22°C° 0 mm 3 mps 760 mmHg 30%
    22:00 +22°C° 0 mm 3 mps 760 mmHg 30%
    23:00 +21°C° 0 mm 3 mps 760 mmHg 30%

    Tomorrow, 23 January, Tuesday

    Time Temperature Precipitation Wind Pressure Humidity
    00:00 +21°C° 0 mm 4 mps 760 mmHg 31%
    01:00 +21°C° 0 mm 4 mps 759 mmHg 32%
    02:00 +20°C° 0 mm 4 mps 759 mmHg 34%
    03:00 +20°C° 0 mm 4 mps 759 mmHg 36%
    04:00 +20°C° 0 mm 4 mps 759 mmHg 37%
    05:00 +19°C° 0 mm 4 mps 759 mmHg 39%
    06:00 +19°C° 0 mm 4 mps 760 mmHg 40%
    07:00 +19°C° 0 mm 4 mps 760 mmHg 41%
    08:00 +21°C° 0 mm 3 mps 760 mmHg 38%
    09:00 +22°C° 0 mm 3 mps 761 mmHg 34%
    10:00 +25°C° 0 mm 3 mps 761 mmHg 30%
    11:00 +26°C° 0 mm 4 mps 760 mmHg 30%
    12:00 +27°C° 0 mm 4 mps 760 mmHg 30%
    13:00 +27°C° 0 mm 5 mps 759 mmHg 29%
    14:00 +27°C° 0 mm 5 mps 759 mmHg 31%
    15:00 +27°C° 0 mm 5 mps 758 mmHg 33%
    16:00 +27°C° 0 mm 5 mps 758 mmHg 34%
    17:00 +26°C° 0 mm 5 mps 758 mmHg 38%
    18:00 +25°C° 0 mm 4 mps 758 mmHg 43%
    19:00 +23°C° 0 mm 4 mps 759 mmHg 47%
    20:00 +23°C° 0 mm 4 mps 759 mmHg 50%
    21:00 +22°C° 0 mm 4 mps 759 mmHg 54%
    22:00 +22°C° 0 mm 3 mps 759 mmHg 57%
    23:00 +22°C° 0 mm 3 mps 759 mmHg 60%

    Day after tomorrow, 24 January, Wednesday

    Time Temperature Precipitation Wind Pressure Humidity
    00:00 +21°C° 0 mm 3 mps 759 mmHg 62%
    01:00 +21°C° 0 mm 3 mps 759 mmHg 64%
    02:00 +21°C° 0 mm 3 mps 758 mmHg 65%
    03:00 +20°C° 0 mm 2 mps 758 mmHg 66%
    04:00 +20°C° 0 mm 2 mps 758 mmHg 67%
    05:00 +20°C° 0 mm 2 mps 758 mmHg 68%
    06:00 +20°C° 0 mm 2 mps 758 mmHg 69%
    07:00 +19°C° 0 mm 2 mps 759 mmHg 70%
    08:00 +21°C° 0 mm 2 mps 759 mmHg 62%
    09:00 +24°C° 0 mm 3 mps 760 mmHg 54%
    10:00 +26°C° 0 mm 3 mps 760 mmHg 45%
    11:00 +26°C° 0 mm 4 mps 760 mmHg 44%
    12:00 +27°C° 0 mm 4 mps 759 mmHg 42%
    13:00 +28°C° 0 mm 5 mps 759 mmHg 40%
    14:00 +28°C° 0 mm 5 mps 758 mmHg 41%
    15:00 +28°C° 0 mm 5 mps 758 mmHg 43%
    16:00 +27°C° 0 mm 5 mps 757 mmHg 44%
    17:00 +27°C° 0 mm 4 mps 758 mmHg 48%
    18:00 +26°C° 0 mm 4 mps 758 mmHg 51%
    19:00 +25°C° 0 mm 3 mps 758 mmHg 54%
    20:00 +24°C° 0 mm 3 mps 759 mmHg 56%
    21:00 +24°C° 0 mm 3 mps 759 mmHg 58%
    22:00 +24°C° 0 mm 3 mps 759 mmHg 60%
    23:00 +22°C° 0 mm 3 mps 759 mmHg 62%

    25 January, Thursday

    Time Temperature Precipitation Wind Pressure Humidity
    00:00 +23°C° 0 mm 2 mps 758 mmHg 63%
    01:00 +21°C° 0 mm 2 mps 758 mmHg 64%
    02:00 +21°C° 0 mm 2 mps 758 mmHg 65%
    03:00 +21°C° 0 mm 2 mps 758 mmHg 66%
    04:00 +21°C° 0 mm 1 mps 757 mmHg 67%
    05:00 +21°C° 0 mm 1 mps 758 mmHg 67%
    06:00 +21°C° 0 mm 1 mps 758 mmHg 68%
    07:00 +21°C° 0 mm 1 mps 759 mmHg 69%
    08:00 +22°C° 0 mm 1 mps 759 mmHg 60%
    09:00 +24°C° 0 mm 2 mps 760 mmHg 52%
    10:00 +26°C° 0 mm 2 mps 760 mmHg 43%
    11:00 +27°C° 0 mm 3 mps 759 mmHg 42%
    12:00 +28°C° 0 mm 3 mps 759 mmHg 40%
    13:00 +28°C° 0 mm 4 mps 758 mmHg 39%
    14:00 +28°C° 0 mm 4 mps 758 mmHg 40%
    15:00 +28°C° 0 mm 4 mps 757 mmHg 41%
    16:00 +28°C° 0 mm 4 mps 757 mmHg 42%
    17:00 +27°C° 0 mm 3 mps 757 mmHg 44%
    18:00 +26°C° 0 mm 3 mps 757 mmHg 46%
    19:00 +25°C° 0 mm 2 mps 758 mmHg 48%
    20:00 +25°C° 0 mm 2 mps 758 mmHg 50%
    21:00 +24°C° 0 mm 2 mps 758 mmHg 52%
    22:00 +24°C° 0 mm 2 mps 759 mmHg 54%
    23:00 +23°C° 0 mm 1 mps 758 mmHg 55%

    26 January, Friday

    Time Temperature Precipitation Wind Pressure Humidity
    00:00 +23°C° 0 mm 1 mps 758 mmHg 56%
    01:00 +22°C° 0 mm 1 mps 758 mmHg 57%
    02:00 +22°C° 0 mm 1 mps 758 mmHg 57%
    03:00 +22°C° 0 mm 1 mps 757 mmHg 57%
    04:00 +21°C° 0 mm 1 mps 757 mmHg 57%
    05:00 +21°C° 0 mm 1 mps 758 mmHg 56%
    06:00 +21°C° 0 mm 1 mps 758 mmHg 55%
    07:00 +19°C° 0 mm 0 mps 758 mmHg 54%
    08:00 +23°C° 0 mm 1 mps 759 mmHg 48%
    09:00 +25°C° 0 mm 1 mps 759 mmHg 42%
    10:00 +27°C° 0 mm 2 mps 760 mmHg 36%
    11:00 +28°C° 0 mm 2 mps 759 mmHg 36%
    12:00 +29°C° 0 mm 3 mps 758 mmHg 36%
    13:00 +29°C° 0 mm 3 mps 758 mmHg 36%
    14:00 +29°C° 0 mm 3 mps 757 mmHg 38%
    15:00 +29°C° 0 mm 3 mps 757 mmHg 40%
    16:00 +29°C° 0 mm 3 mps 757 mmHg 42%
    17:00 +28°C° 0 mm 3 mps 757 mmHg 45%
    18:00 +27°C° 0 mm 2 mps 757 mmHg 48%
    19:00 +26°C° 0 mm 2 mps 757 mmHg 51%
    20:00 +25°C° 0 mm 1 mps 758 mmHg 52%
    21:00 +24°C° 0 mm 1 mps 758 mmHg 54%
    22:00 +24°C° 0 mm 1 mps 758 mmHg 55%
    23:00 +24°C° 0 mm 1 mps 758 mmHg 56%

    27 January, Saturday

    Time Temperature Precipitation Wind Pressure Humidity
    00:00 +23°C° 0 mm 1 mps 757 mmHg 56%
    01:00 +21°C° 0 mm 0 mps 757 mmHg 57%
    02:00 +21°C° 0 mm 0 mps 757 mmHg 56%
    03:00 +20°C° 0 mm 0 mps 756 mmHg 55%
    04:00 +20°C° 0 mm 0 mps 756 mmHg 55%
    05:00 +20°C° 0 mm 0 mps 756 mmHg 55%
    06:00 +22°C° 0 mm 1 mps 757 mmHg 54%
    07:00 +22°C° 0 mm 1 mps 757 mmHg 54%
    08:00 +24°C° 0 mm 1 mps 758 mmHg 50%
    09:00 +25°C° 0 mm 2 mps 758 mmHg 46%
    10:00 +27°C° 0 mm 2 mps 758 mmHg 42%
    11:00 +28°C° 0 mm 2 mps 758 mmHg 42%
    12:00 +29°C° 0 mm 2 mps 757 mmHg 42%
    13:00 +29°C° 0 mm 3 mps 757 mmHg 42%
    14:00 +29°C° 0 mm 3 mps 756 mmHg 44%
    15:00 +29°C° 0 mm 3 mps 756 mmHg 46%
    16:00 +29°C° 0 mm 3 mps 756 mmHg 48%
    17:00 +27°C° 0 mm 2 mps 756 mmHg 52%
    18:00 +26°C° 0 mm 2 mps 756 mmHg 56%
    19:00 +25°C° 0 mm 1 mps 756 mmHg 60%
    20:00 +25°C° 0 mm 1 mps 757 mmHg 63%
    21:00 +25°C° 0 mm 1 mps 757 mmHg 65%
    22:00 +24°C° 0 mm 1 mps 757 mmHg 68%
    23:00 +24°C° 0 mm 1 mps 757 mmHg 69%
    Show more